Year,Month,Day,Hour,Minute,Value (Times are PST for temperature in C)
2018,10,22,00,00,6.20
2018,10,22,00,01,6.20
2018,10,22,00,02,6.20
2018,10,22,00,03,6.20
2018,10,22,00,04,6.20
2018,10,22,00,05,6.20
2018,10,22,00,06,6.20
2018,10,22,00,07,6.20
2018,10,22,00,08,6.20
2018,10,22,00,09,6.20
2018,10,22,00,10,6.20
2018,10,22,00,11,6.20
2018,10,22,00,12,6.20
2018,10,22,00,13,6.10
2018,10,22,00,14,6.10
2018,10,22,00,15,6.10
2018,10,22,00,16,6.10
2018,10,22,00,17,6.10
2018,10,22,00,18,6.10
2018,10,22,00,19,6.10
2018,10,22,00,20,6.10
2018,10,22,00,21,6.10
2018,10,22,00,22,6.10
2018,10,22,00,23,6.10
2018,10,22,00,24,6.10
2018,10,22,00,25,6.10
2018,10,22,00,26,6.10
2018,10,22,00,27,6.10
2018,10,22,00,28,6.10
2018,10,22,00,29,6.10
2018,10,22,00,30,6.00
2018,10,22,00,31,6.00
2018,10,22,00,32,6.00
2018,10,22,00,33,6.00
2018,10,22,00,34,6.00
2018,10,22,00,35,6.00
2018,10,22,00,36,5.90
2018,10,22,00,37,5.90
2018,10,22,00,38,5.90
2018,10,22,00,39,5.90
2018,10,22,00,40,5.90
2018,10,22,00,41,5.90
2018,10,22,00,42,5.90
2018,10,22,00,43,5.90
2018,10,22,00,44,5.90
2018,10,22,00,45,5.90
2018,10,22,00,46,5.90
2018,10,22,00,47,5.90
2018,10,22,00,48,5.90
2018,10,22,00,49,5.90
2018,10,22,00,50,5.90
2018,10,22,00,51,5.90
2018,10,22,00,52,5.90
2018,10,22,00,53,5.90
2018,10,22,00,54,5.90
2018,10,22,00,55,5.90
2018,10,22,00,56,5.80
2018,10,22,00,57,5.80
2018,10,22,00,58,5.80
2018,10,22,00,59,5.80
2018,10,22,01,00,5.80
2018,10,22,01,01,5.80
2018,10,22,01,02,5.80
2018,10,22,01,03,5.70
2018,10,22,01,04,5.70
2018,10,22,01,05,5.70
2018,10,22,01,06,5.70
2018,10,22,01,07,5.70
2018,10,22,01,08,5.70
2018,10,22,01,09,5.70
2018,10,22,01,10,5.70
2018,10,22,01,11,5.60
2018,10,22,01,12,5.60
2018,10,22,01,13,5.60
2018,10,22,01,14,5.60
2018,10,22,01,15,5.60
2018,10,22,01,16,5.60
2018,10,22,01,17,5.60
2018,10,22,01,18,5.60
2018,10,22,01,19,5.60
2018,10,22,01,20,5.60
2018,10,22,01,21,5.60
2018,10,22,01,22,5.60
2018,10,22,01,23,5.60
2018,10,22,01,24,5.50
2018,10,22,01,25,5.50
2018,10,22,01,26,5.50
2018,10,22,01,27,5.50
2018,10,22,01,28,5.50
2018,10,22,01,29,5.50
2018,10,22,01,30,5.50
2018,10,22,01,31,5.50
2018,10,22,01,32,5.50
2018,10,22,01,33,5.50
2018,10,22,01,34,5.50
2018,10,22,01,35,5.40
2018,10,22,01,36,5.40
2018,10,22,01,37,5.40
2018,10,22,01,38,5.40
2018,10,22,01,39,5.40
2018,10,22,01,40,5.40
2018,10,22,01,41,5.40
2018,10,22,01,42,5.40
2018,10,22,01,43,5.40
2018,10,22,01,44,5.40
2018,10,22,01,45,5.40
2018,10,22,01,46,5.40
2018,10,22,01,47,5.40
2018,10,22,01,48,5.40
2018,10,22,01,49,5.40
2018,10,22,01,50,5.40
2018,10,22,01,51,5.40
2018,10,22,01,52,5.40
2018,10,22,01,53,5.40
2018,10,22,01,54,5.40
2018,10,22,01,55,5.40
2018,10,22,01,56,5.40
2018,10,22,01,57,5.40
2018,10,22,01,58,5.30
2018,10,22,01,59,5.30
2018,10,22,02,00,5.30
2018,10,22,02,01,5.30
2018,10,22,02,02,5.30
2018,10,22,02,03,5.30
2018,10,22,02,04,5.30
2018,10,22,02,05,5.30
2018,10,22,02,06,5.30
2018,10,22,02,07,5.40
2018,10,22,02,08,5.30
2018,10,22,02,09,5.30
2018,10,22,02,10,5.30
2018,10,22,02,11,5.30
2018,10,22,02,12,5.30
2018,10,22,02,13,5.30
2018,10,22,02,14,5.30
2018,10,22,02,15,5.30
2018,10,22,02,16,5.40
2018,10,22,02,17,5.40
2018,10,22,02,18,5.40
2018,10,22,02,19,5.40
2018,10,22,02,20,5.40
2018,10,22,02,21,5.40
2018,10,22,02,22,5.40
2018,10,22,02,23,5.40
2018,10,22,02,24,5.40
2018,10,22,02,25,5.40
2018,10,22,02,26,5.40
2018,10,22,02,27,5.40
2018,10,22,02,28,5.30
2018,10,22,02,29,5.30
2018,10,22,02,30,5.30
2018,10,22,02,31,5.30
2018,10,22,02,32,5.30
2018,10,22,02,33,5.30
2018,10,22,02,34,5.30
2018,10,22,02,35,5.30
2018,10,22,02,36,5.20
2018,10,22,02,37,5.20
2018,10,22,02,38,5.20
2018,10,22,02,39,5.20
2018,10,22,02,40,5.20
2018,10,22,02,41,5.20
2018,10,22,02,42,5.10
2018,10,22,02,43,5.10
2018,10,22,02,44,5.10
2018,10,22,02,45,5.10
2018,10,22,02,46,5.10
2018,10,22,02,47,5.10
2018,10,22,02,48,5.10
2018,10,22,02,49,5.10
2018,10,22,02,50,5.10
2018,10,22,02,51,5.10
2018,10,22,02,52,5.10
2018,10,22,02,53,5.10
2018,10,22,02,54,5.10
2018,10,22,02,55,5.10
2018,10,22,02,56,5.10
2018,10,22,02,57,5.10
2018,10,22,02,58,5.00
2018,10,22,02,59,5.00
2018,10,22,03,00,5.00
2018,10,22,03,01,5.00
2018,10,22,03,02,5.00
2018,10,22,03,03,4.90
2018,10,22,03,04,4.90
2018,10,22,03,05,4.90
2018,10,22,03,06,4.90
2018,10,22,03,07,4.80
2018,10,22,03,08,4.80
2018,10,22,03,09,4.80
2018,10,22,03,10,4.80
2018,10,22,03,11,4.80
2018,10,22,03,12,4.80
2018,10,22,03,13,4.80
2018,10,22,03,14,4.80
2018,10,22,03,15,4.80
2018,10,22,03,16,4.80
2018,10,22,03,17,4.80
2018,10,22,03,18,4.80
2018,10,22,03,19,4.80
2018,10,22,03,20,4.70
2018,10,22,03,21,4.70
2018,10,22,03,22,4.70
2018,10,22,03,23,4.70
2018,10,22,03,24,4.70
2018,10,22,03,25,4.70
2018,10,22,03,26,4.70
2018,10,22,03,27,4.70
2018,10,22,03,28,4.70
2018,10,22,03,29,4.70
2018,10,22,03,30,4.70
2018,10,22,03,31,4.70
2018,10,22,03,32,4.70
2018,10,22,03,33,4.70
2018,10,22,03,34,4.70
2018,10,22,03,35,4.70
2018,10,22,03,36,4.70
2018,10,22,03,37,4.70
2018,10,22,03,38,4.70
2018,10,22,03,39,4.70
2018,10,22,03,40,4.70
2018,10,22,03,41,4.70
2018,10,22,03,42,4.60
2018,10,22,03,43,4.60
2018,10,22,03,44,4.60
2018,10,22,03,45,4.60
2018,10,22,03,46,4.60
2018,10,22,03,47,4.60
2018,10,22,03,48,4.50
2018,10,22,03,49,4.50
2018,10,22,03,50,4.50
2018,10,22,03,51,4.50
2018,10,22,03,52,4.50
2018,10,22,03,53,4.50
2018,10,22,03,54,4.40
2018,10,22,03,55,4.40
2018,10,22,03,56,4.40
2018,10,22,03,57,4.40
2018,10,22,03,58,4.40
2018,10,22,03,59,4.40
2018,10,22,04,00,4.40
2018,10,22,04,01,4.40
2018,10,22,04,02,4.40
2018,10,22,04,03,4.40
2018,10,22,04,04,4.40
2018,10,22,04,05,4.40
2018,10,22,04,06,4.40
2018,10,22,04,07,4.40
2018,10,22,04,08,4.40
2018,10,22,04,09,4.40
2018,10,22,04,10,4.40
2018,10,22,04,11,4.40
2018,10,22,04,12,4.40
2018,10,22,04,13,4.40
2018,10,22,04,14,4.40
2018,10,22,04,15,4.40
2018,10,22,04,16,4.40
2018,10,22,04,17,4.40
2018,10,22,04,18,4.50
2018,10,22,04,19,4.40
2018,10,22,04,20,4.50
2018,10,22,04,21,4.50
2018,10,22,04,22,4.50
2018,10,22,04,23,4.50
2018,10,22,04,24,4.50
2018,10,22,04,25,4.40
2018,10,22,04,26,4.40
2018,10,22,04,27,4.40
2018,10,22,04,28,4.40
2018,10,22,04,29,4.40
2018,10,22,04,30,4.40
2018,10,22,04,31,4.40
2018,10,22,04,32,4.40
2018,10,22,04,33,4.40
2018,10,22,04,34,4.40
2018,10,22,04,35,4.40
2018,10,22,04,36,4.40
2018,10,22,04,37,4.30
2018,10,22,04,38,4.30
2018,10,22,04,39,4.30
2018,10,22,04,40,4.30
2018,10,22,04,41,4.30
2018,10,22,04,42,4.30
2018,10,22,04,43,4.30
2018,10,22,04,44,4.30
2018,10,22,04,45,4.30
2018,10,22,04,46,4.30
2018,10,22,04,47,4.30
2018,10,22,04,48,4.30
2018,10,22,04,49,4.30
2018,10,22,04,50,4.30
2018,10,22,04,51,4.30
2018,10,22,04,52,4.30
2018,10,22,04,53,4.30
2018,10,22,04,54,4.30
2018,10,22,04,55,4.30
2018,10,22,04,56,4.30
2018,10,22,04,57,4.30
2018,10,22,04,58,4.30
2018,10,22,04,59,4.30
2018,10,22,05,00,4.30
2018,10,22,05,01,4.30
2018,10,22,05,02,4.30
2018,10,22,05,03,4.30
2018,10,22,05,04,4.30
2018,10,22,05,05,4.30
2018,10,22,05,06,4.30
2018,10,22,05,07,4.30
2018,10,22,05,08,4.30
2018,10,22,05,09,4.30
2018,10,22,05,10,4.30
2018,10,22,05,11,4.30
2018,10,22,05,12,4.30
2018,10,22,05,13,4.30
2018,10,22,05,14,4.30
2018,10,22,05,15,4.20
2018,10,22,05,16,4.20
2018,10,22,05,17,4.20
2018,10,22,05,18,4.20
2018,10,22,05,19,4.20
2018,10,22,05,20,4.20
2018,10,22,05,21,4.20
2018,10,22,05,22,4.20
2018,10,22,05,23,4.20
2018,10,22,05,24,4.20
2018,10,22,05,25,4.20
2018,10,22,05,26,4.20
2018,10,22,05,27,4.20
2018,10,22,05,28,4.20
2018,10,22,05,29,4.20
2018,10,22,05,30,4.20
2018,10,22,05,31,4.20
2018,10,22,05,32,4.20
2018,10,22,05,33,4.20
2018,10,22,05,34,4.20
2018,10,22,05,35,4.20
2018,10,22,05,36,4.20
2018,10,22,05,37,4.20
2018,10,22,05,38,4.20
2018,10,22,05,39,4.20
2018,10,22,05,40,4.20
2018,10,22,05,41,4.20
2018,10,22,05,42,4.20
2018,10,22,05,43,4.20
2018,10,22,05,44,4.20
2018,10,22,05,45,4.20
2018,10,22,05,46,4.20
2018,10,22,05,47,4.20
2018,10,22,05,48,4.10
2018,10,22,05,49,4.10
2018,10,22,05,50,4.10
2018,10,22,05,51,4.10
2018,10,22,05,52,4.10
2018,10,22,05,53,4.10
2018,10,22,05,54,4.10
2018,10,22,05,55,4.10
2018,10,22,05,56,4.10
2018,10,22,05,57,4.10
2018,10,22,05,58,4.10
2018,10,22,05,59,4.10
2018,10,22,06,00,4.10
2018,10,22,06,01,4.10
2018,10,22,06,02,4.10
2018,10,22,06,03,4.10
2018,10,22,06,04,4.10
2018,10,22,06,05,4.10
2018,10,22,06,06,4.10
2018,10,22,06,07,4.10
2018,10,22,06,08,4.10
2018,10,22,06,09,4.10
2018,10,22,06,10,4.20
2018,10,22,06,11,4.20
2018,10,22,06,12,4.20
2018,10,22,06,13,4.20
2018,10,22,06,14,4.30
2018,10,22,06,15,4.30
2018,10,22,06,16,4.30
2018,10,22,06,17,4.30
2018,10,22,06,18,4.30
2018,10,22,06,19,4.30
2018,10,22,06,20,4.30
2018,10,22,06,21,4.30
2018,10,22,06,22,4.30
2018,10,22,06,23,4.30
2018,10,22,06,24,4.30
2018,10,22,06,25,4.30
2018,10,22,06,26,4.30
2018,10,22,06,27,4.30
2018,10,22,06,28,4.30
2018,10,22,06,29,4.30
2018,10,22,06,30,4.30
2018,10,22,06,31,4.30
2018,10,22,06,32,4.30
2018,10,22,06,33,4.30
2018,10,22,06,34,4.30
2018,10,22,06,35,4.30
2018,10,22,06,36,4.30
2018,10,22,06,37,4.30
2018,10,22,06,38,4.20
2018,10,22,06,39,4.20
2018,10,22,06,40,4.20
2018,10,22,06,41,4.20
2018,10,22,06,42,4.20
2018,10,22,06,43,4.20
2018,10,22,06,44,4.20
2018,10,22,06,45,4.20
2018,10,22,06,46,4.20
2018,10,22,06,47,4.20
2018,10,22,06,48,4.20
2018,10,22,06,49,4.20
2018,10,22,06,50,4.20
2018,10,22,06,51,4.10
2018,10,22,06,52,4.10
2018,10,22,06,53,4.10
2018,10,22,06,54,4.10
2018,10,22,06,55,4.10
2018,10,22,06,56,4.10
2018,10,22,06,57,4.10
2018,10,22,06,58,4.10
2018,10,22,06,59,4.10
2018,10,22,07,00,4.10
2018,10,22,07,01,4.10
2018,10,22,07,02,4.10
2018,10,22,07,03,4.10
2018,10,22,07,04,4.10
2018,10,22,07,05,4.10
2018,10,22,07,06,4.10
2018,10,22,07,07,4.10
2018,10,22,07,08,4.10
2018,10,22,07,09,4.10
2018,10,22,07,10,4.10
2018,10,22,07,11,4.10
2018,10,22,07,12,4.10
2018,10,22,07,13,4.10
2018,10,22,07,14,4.10
2018,10,22,07,15,4.10
2018,10,22,07,16,4.10
2018,10,22,07,17,4.10
2018,10,22,07,18,4.10
2018,10,22,07,19,4.10
2018,10,22,07,20,4.10
2018,10,22,07,21,4.10
2018,10,22,07,22,4.10
2018,10,22,07,23,4.10
2018,10,22,07,24,4.10
2018,10,22,07,25,4.10
2018,10,22,07,26,4.10
2018,10,22,07,27,4.10
2018,10,22,07,28,4.10
2018,10,22,07,29,4.10
2018,10,22,07,30,4.10
2018,10,22,07,31,4.10
2018,10,22,07,32,4.10
2018,10,22,07,33,4.10
2018,10,22,07,34,4.20
2018,10,22,07,35,4.20
2018,10,22,07,36,4.20
2018,10,22,07,37,4.20
2018,10,22,07,38,4.20
2018,10,22,07,39,4.20
2018,10,22,07,40,4.20
2018,10,22,07,41,4.20
2018,10,22,07,42,4.20
2018,10,22,07,43,4.20
2018,10,22,07,44,4.20
2018,10,22,07,45,4.20
2018,10,22,07,46,4.20
2018,10,22,07,47,4.10
2018,10,22,07,48,4.20
2018,10,22,07,49,4.20
2018,10,22,07,50,4.10
2018,10,22,07,51,4.10
2018,10,22,07,52,4.10
2018,10,22,07,53,4.10
2018,10,22,07,54,4.10
2018,10,22,07,55,4.10
2018,10,22,07,56,4.10
2018,10,22,07,57,4.10
2018,10,22,07,58,4.10
2018,10,22,07,59,4.10
2018,10,22,08,00,4.10
2018,10,22,08,01,4.10
2018,10,22,08,02,4.10
2018,10,22,08,03,4.10
2018,10,22,08,04,4.10
2018,10,22,08,05,4.10
2018,10,22,08,06,4.10
2018,10,22,08,07,4.10
2018,10,22,08,08,4.10
2018,10,22,08,09,4.10
2018,10,22,08,10,4.10
2018,10,22,08,11,4.20
2018,10,22,08,12,4.20
2018,10,22,08,13,4.20
2018,10,22,08,14,4.20
2018,10,22,08,15,4.20
2018,10,22,08,16,4.20
2018,10,22,08,17,4.20
2018,10,22,08,18,4.20
2018,10,22,08,19,4.20
2018,10,22,08,20,4.20
2018,10,22,08,21,4.20
2018,10,22,08,22,4.20
2018,10,22,08,23,4.30
2018,10,22,08,24,4.30
2018,10,22,08,25,4.30
2018,10,22,08,26,4.30
2018,10,22,08,27,4.30
2018,10,22,08,28,4.30
2018,10,22,08,29,4.30
2018,10,22,08,30,4.30
2018,10,22,08,31,4.30
2018,10,22,08,32,4.30
2018,10,22,08,33,4.30
2018,10,22,08,34,4.30
2018,10,22,08,35,4.30
2018,10,22,08,36,4.30
2018,10,22,08,37,4.40
2018,10,22,08,38,4.40
2018,10,22,08,39,4.40
2018,10,22,08,40,4.40
2018,10,22,08,41,4.50
2018,10,22,08,42,4.50
2018,10,22,08,43,4.50
2018,10,22,08,44,4.60
2018,10,22,08,45,4.60
2018,10,22,08,46,4.60
2018,10,22,08,47,4.60
2018,10,22,08,48,4.60
2018,10,22,08,49,4.60
2018,10,22,08,50,4.70
2018,10,22,08,51,4.70
2018,10,22,08,52,4.80
2018,10,22,08,53,4.80
2018,10,22,08,54,4.80
2018,10,22,08,55,4.80
2018,10,22,08,56,4.90
2018,10,22,08,57,4.90
2018,10,22,08,58,4.90
2018,10,22,08,59,4.90
2018,10,22,09,00,4.90
2018,10,22,09,01,5.00
2018,10,22,09,02,5.00
2018,10,22,09,03,5.00
2018,10,22,09,04,5.10
2018,10,22,09,05,5.10
2018,10,22,09,06,5.10
2018,10,22,09,07,5.10
2018,10,22,09,08,5.10
2018,10,22,09,09,5.20
2018,10,22,09,10,5.20
2018,10,22,09,11,5.20
2018,10,22,09,12,5.30
2018,10,22,09,13,5.30
2018,10,22,09,14,5.30
2018,10,22,09,15,5.40
2018,10,22,09,16,5.40
2018,10,22,09,17,5.50
2018,10,22,09,18,5.50
2018,10,22,09,19,5.50
2018,10,22,09,20,5.60
2018,10,22,09,21,5.60
2018,10,22,09,22,5.60
2018,10,22,09,23,5.70
2018,10,22,09,24,5.70
2018,10,22,09,25,5.70
2018,10,22,09,26,5.70
2018,10,22,09,27,5.70
2018,10,22,09,28,5.80
2018,10,22,09,29,5.80
2018,10,22,09,30,5.80
2018,10,22,09,31,5.90
2018,10,22,09,32,5.90
2018,10,22,09,33,5.90
2018,10,22,09,34,6.00
2018,10,22,09,35,6.00
2018,10,22,09,36,6.10
2018,10,22,09,37,6.10
2018,10,22,09,38,6.10
2018,10,22,09,39,6.10
2018,10,22,09,40,6.20
2018,10,22,09,41,6.20
2018,10,22,09,42,6.20
2018,10,22,09,43,6.30
2018,10,22,09,44,6.30
2018,10,22,09,45,6.30
2018,10,22,09,46,6.40
2018,10,22,09,47,6.40
2018,10,22,09,48,6.40
2018,10,22,09,49,6.50
2018,10,22,09,50,6.50
2018,10,22,09,51,6.60
2018,10,22,09,52,6.60
2018,10,22,09,53,6.70
2018,10,22,09,54,6.70
2018,10,22,09,55,6.70
2018,10,22,09,56,6.80
2018,10,22,09,57,6.80
2018,10,22,09,58,6.80
2018,10,22,09,59,6.90
2018,10,22,10,00,6.90
2018,10,22,10,01,7.00
2018,10,22,10,02,7.00
2018,10,22,10,03,7.10
2018,10,22,10,04,7.10
2018,10,22,10,05,7.20
2018,10,22,10,06,7.20
2018,10,22,10,07,7.20
2018,10,22,10,08,7.20
2018,10,22,10,09,7.20
2018,10,22,10,10,7.20
2018,10,22,10,11,7.30
2018,10,22,10,12,7.30
2018,10,22,10,13,7.40
2018,10,22,10,14,7.40
2018,10,22,10,15,7.50
2018,10,22,10,16,7.60
2018,10,22,10,17,7.60
2018,10,22,10,18,7.70
2018,10,22,10,19,7.70
2018,10,22,10,20,7.80
2018,10,22,10,21,7.80
2018,10,22,10,22,7.80
2018,10,22,10,23,7.90
2018,10,22,10,24,7.90
2018,10,22,10,25,8.00
2018,10,22,10,26,8.00
2018,10,22,10,27,8.10
2018,10,22,10,28,8.10
2018,10,22,10,29,8.20
2018,10,22,10,30,8.20
2018,10,22,10,31,8.30
2018,10,22,10,32,8.30
2018,10,22,10,33,8.40
2018,10,22,10,34,8.50
2018,10,22,10,35,8.50
2018,10,22,10,36,8.60
2018,10,22,10,37,8.70
2018,10,22,10,38,8.70
2018,10,22,10,39,8.80
2018,10,22,10,40,9.00
2018,10,22,10,41,9.10
2018,10,22,10,42,9.20
2018,10,22,10,43,9.30
2018,10,22,10,44,9.40
2018,10,22,10,45,9.40
2018,10,22,10,46,9.50
2018,10,22,10,47,9.60
2018,10,22,10,48,9.60
2018,10,22,10,49,9.70
2018,10,22,10,50,9.90
2018,10,22,10,51,10.00
2018,10,22,10,52,10.20
2018,10,22,10,53,10.30
2018,10,22,10,54,10.40
2018,10,22,10,55,10.60
2018,10,22,10,56,10.70
2018,10,22,10,57,10.80
2018,10,22,10,58,10.90
2018,10,22,10,59,11.00
2018,10,22,11,00,11.20
2018,10,22,11,01,11.30
2018,10,22,11,02,11.40
2018,10,22,11,03,11.50
2018,10,22,11,04,11.60
2018,10,22,11,05,11.70
2018,10,22,11,06,11.80
2018,10,22,11,07,11.90
2018,10,22,11,08,11.90
2018,10,22,11,09,12.00
2018,10,22,11,10,12.10
2018,10,22,11,11,12.20
2018,10,22,11,12,12.30
2018,10,22,11,13,12.40
2018,10,22,11,14,12.50
2018,10,22,11,15,12.50
2018,10,22,11,16,12.60
2018,10,22,11,17,12.70
2018,10,22,11,18,12.80
2018,10,22,11,19,12.90
2018,10,22,11,20,12.90
2018,10,22,11,21,13.00
2018,10,22,11,22,13.10
2018,10,22,11,23,13.10
2018,10,22,11,24,13.20
2018,10,22,11,25,13.30
2018,10,22,11,26,13.30
2018,10,22,11,27,13.40
2018,10,22,11,28,13.40
2018,10,22,11,29,13.50
2018,10,22,11,30,13.50
2018,10,22,11,31,13.50
2018,10,22,11,32,13.60
2018,10,22,11,33,13.60
2018,10,22,11,34,13.60
2018,10,22,11,35,13.60
2018,10,22,11,36,13.70
2018,10,22,11,37,13.70
2018,10,22,11,38,13.70
2018,10,22,11,39,13.80
2018,10,22,11,40,13.80
2018,10,22,11,41,13.90
2018,10,22,11,42,13.90
2018,10,22,11,43,13.90
2018,10,22,11,44,13.80
2018,10,22,11,45,13.80
2018,10,22,11,46,13.90
2018,10,22,11,47,13.90
2018,10,22,11,48,14.00
2018,10,22,11,49,14.10
2018,10,22,11,50,14.20
2018,10,22,11,51,14.30
2018,10,22,11,52,14.40
2018,10,22,11,53,14.50
2018,10,22,11,54,14.50
2018,10,22,11,55,14.70
2018,10,22,11,56,14.90
2018,10,22,11,57,15.00
2018,10,22,11,58,15.00
2018,10,22,11,59,15.00
2018,10,22,12,00,15.00
2018,10,22,12,01,15.00
2018,10,22,12,02,15.00
2018,10,22,12,03,15.00
2018,10,22,12,04,15.00
2018,10,22,12,05,15.20
2018,10,22,12,06,15.30
2018,10,22,12,07,15.40
2018,10,22,12,08,15.50
2018,10,22,12,09,15.50
2018,10,22,12,10,15.60
2018,10,22,12,11,15.60
2018,10,22,12,12,15.70
2018,10,22,12,13,15.70
2018,10,22,12,14,15.70
2018,10,22,12,15,15.70
2018,10,22,12,16,15.80
2018,10,22,12,17,15.80
2018,10,22,12,18,15.80
2018,10,22,12,19,15.80
2018,10,22,12,20,15.80
2018,10,22,12,21,15.90
2018,10,22,12,22,15.90
2018,10,22,12,23,15.90
2018,10,22,12,24,15.90
2018,10,22,12,25,15.90
2018,10,22,12,26,16.00
2018,10,22,12,27,16.10
2018,10,22,12,28,16.10
2018,10,22,12,29,16.20
2018,10,22,12,30,16.20
2018,10,22,12,31,16.30
2018,10,22,12,32,16.30
2018,10,22,12,33,16.30
2018,10,22,12,34,16.40
2018,10,22,12,35,16.40
2018,10,22,12,36,16.40
2018,10,22,12,37,16.30
2018,10,22,12,38,16.30
2018,10,22,12,39,16.30
2018,10,22,12,40,16.30
2018,10,22,12,41,16.30
2018,10,22,12,42,16.30
2018,10,22,12,43,16.30
2018,10,22,12,44,16.30
2018,10,22,12,45,16.30
2018,10,22,12,46,16.30
2018,10,22,12,47,16.30
2018,10,22,12,48,16.30
2018,10,22,12,49,16.30
2018,10,22,12,50,16.30
2018,10,22,12,51,16.30
2018,10,22,12,52,16.30
2018,10,22,12,53,16.30
2018,10,22,12,54,16.30
2018,10,22,12,55,16.30
2018,10,22,12,56,16.30
2018,10,22,12,57,16.30
2018,10,22,12,58,16.30
2018,10,22,12,59,16.30
2018,10,22,13,00,16.30
2018,10,22,13,01,16.30
2018,10,22,13,02,16.30
2018,10,22,13,03,16.30
2018,10,22,13,04,16.30
2018,10,22,13,05,16.40
2018,10,22,13,06,16.40
2018,10,22,13,07,16.50
2018,10,22,13,08,16.60
2018,10,22,13,09,16.60
2018,10,22,13,10,16.70
2018,10,22,13,11,16.70
2018,10,22,13,12,16.80
2018,10,22,13,13,16.80
2018,10,22,13,14,16.80
2018,10,22,13,15,16.80
2018,10,22,13,16,16.90
2018,10,22,13,17,16.90
2018,10,22,13,18,17.00
2018,10,22,13,19,17.00
2018,10,22,13,20,17.10
2018,10,22,13,21,17.10
2018,10,22,13,22,17.10
2018,10,22,13,23,17.10
2018,10,22,13,24,17.10
2018,10,22,13,25,17.10
2018,10,22,13,26,17.00
2018,10,22,13,27,17.00
2018,10,22,13,28,17.00
2018,10,22,13,29,16.90
2018,10,22,13,30,16.90
2018,10,22,13,31,16.80
2018,10,22,13,32,16.80
2018,10,22,13,33,16.80
2018,10,22,13,34,16.80
2018,10,22,13,35,16.80
2018,10,22,13,36,16.70
2018,10,22,13,37,16.70
2018,10,22,13,38,16.60
2018,10,22,13,39,16.60
2018,10,22,13,40,16.60
2018,10,22,13,41,16.70
2018,10,22,13,42,16.70
2018,10,22,13,43,16.70
2018,10,22,13,44,16.70
2018,10,22,13,45,16.70
2018,10,22,13,46,16.70
2018,10,22,13,47,16.80
2018,10,22,13,48,16.80
2018,10,22,13,49,16.80
2018,10,22,13,50,16.80
2018,10,22,13,51,16.80
2018,10,22,13,52,16.90
2018,10,22,13,53,16.90
2018,10,22,13,54,16.90
2018,10,22,13,55,16.90
2018,10,22,13,56,16.90
2018,10,22,13,57,16.90
2018,10,22,13,58,16.90
2018,10,22,13,59,17.00
2018,10,22,14,00,17.00
2018,10,22,14,01,17.00
2018,10,22,14,02,17.00
2018,10,22,14,03,17.10
2018,10,22,14,04,17.00
2018,10,22,14,05,17.00
2018,10,22,14,06,16.90
2018,10,22,14,07,16.90
2018,10,22,14,08,16.90
2018,10,22,14,09,16.90
2018,10,22,14,10,16.90
2018,10,22,14,11,16.80
2018,10,22,14,12,16.90
2018,10,22,14,13,16.90
2018,10,22,14,14,16.90
2018,10,22,14,15,17.00
2018,10,22,14,16,17.00
2018,10,22,14,17,17.10
2018,10,22,14,18,17.10
2018,10,22,14,19,17.20
2018,10,22,14,20,17.20
2018,10,22,14,21,17.30
2018,10,22,14,22,17.30
2018,10,22,14,23,17.30
2018,10,22,14,24,17.30
2018,10,22,14,25,17.40
2018,10,22,14,26,17.40
2018,10,22,14,27,17.40
2018,10,22,14,28,17.30
2018,10,22,14,29,17.30
2018,10,22,14,30,17.30
2018,10,22,14,31,17.30
2018,10,22,14,32,17.30
2018,10,22,14,33,17.30
2018,10,22,14,34,17.30
2018,10,22,14,35,17.30
2018,10,22,14,36,17.30
2018,10,22,14,37,17.30
2018,10,22,14,38,17.30
2018,10,22,14,39,17.30
2018,10,22,14,40,17.30
2018,10,22,14,41,17.30
2018,10,22,14,42,17.30
2018,10,22,14,43,17.40
2018,10,22,14,44,17.40
2018,10,22,14,45,17.50
2018,10,22,14,46,17.50
2018,10,22,14,47,17.60
2018,10,22,14,48,17.60
2018,10,22,14,49,17.50
2018,10,22,14,50,17.50
2018,10,22,14,51,17.40
2018,10,22,14,52,17.50
2018,10,22,14,53,17.50
2018,10,22,14,54,17.60
2018,10,22,14,55,17.60
2018,10,22,14,56,17.50
2018,10,22,14,57,17.50
2018,10,22,14,58,17.50
2018,10,22,14,59,17.50
2018,10,22,15,00,17.50
2018,10,22,15,01,17.40
2018,10,22,15,02,17.30
2018,10,22,15,03,17.20
2018,10,22,15,04,17.20
2018,10,22,15,05,17.20
2018,10,22,15,06,17.20
2018,10,22,15,07,17.20
2018,10,22,15,08,17.20
2018,10,22,15,09,17.30
2018,10,22,15,10,17.30
2018,10,22,15,11,17.40
2018,10,22,15,12,17.40
2018,10,22,15,13,17.50
2018,10,22,15,14,17.50
2018,10,22,15,15,17.60
2018,10,22,15,16,17.70
2018,10,22,15,17,17.70
2018,10,22,15,18,17.70
2018,10,22,15,19,17.60
2018,10,22,15,20,17.60
2018,10,22,15,21,17.60
2018,10,22,15,22,17.60
2018,10,22,15,23,17.60
2018,10,22,15,24,17.60
2018,10,22,15,25,17.50
2018,10,22,15,26,17.50
2018,10,22,15,27,17.50
2018,10,22,15,28,17.40
2018,10,22,15,29,17.40
2018,10,22,15,30,17.30
2018,10,22,15,31,17.30
2018,10,22,15,32,17.30
2018,10,22,15,33,17.30
2018,10,22,15,34,17.30
2018,10,22,15,35,17.30
2018,10,22,15,36,17.30
2018,10,22,15,37,17.30
2018,10,22,15,38,17.40
2018,10,22,15,39,17.40
2018,10,22,15,40,17.50
2018,10,22,15,41,17.50
2018,10,22,15,42,17.50
2018,10,22,15,43,17.50
2018,10,22,15,44,17.50
2018,10,22,15,45,17.50
2018,10,22,15,46,17.50
2018,10,22,15,47,17.50
2018,10,22,15,48,17.50
2018,10,22,15,49,17.50
2018,10,22,15,50,17.50
2018,10,22,15,51,17.50
2018,10,22,15,52,17.50
2018,10,22,15,53,17.60
2018,10,22,15,54,17.50
2018,10,22,15,55,17.50
2018,10,22,15,56,17.50
2018,10,22,15,57,17.40
2018,10,22,15,58,17.40
2018,10,22,15,59,17.40
2018,10,22,16,00,17.40
2018,10,22,16,01,17.30
2018,10,22,16,02,17.30
2018,10,22,16,03,17.30
2018,10,22,16,04,17.30
2018,10,22,16,05,17.20
2018,10,22,16,06,17.20
2018,10,22,16,07,17.20
2018,10,22,16,08,17.20
2018,10,22,16,09,17.20
2018,10,22,16,10,17.10
2018,10,22,16,11,17.10
2018,10,22,16,12,17.10
2018,10,22,16,13,17.00
2018,10,22,16,14,17.00
2018,10,22,16,15,16.90
2018,10,22,16,16,16.90
2018,10,22,16,17,16.90
2018,10,22,16,18,16.90
2018,10,22,16,19,16.90
2018,10,22,16,20,16.90
2018,10,22,16,21,16.80
2018,10,22,16,22,16.80
2018,10,22,16,23,16.80
2018,10,22,16,24,16.80
2018,10,22,16,25,16.80
2018,10,22,16,26,16.80
2018,10,22,16,27,16.80
2018,10,22,16,28,16.80
2018,10,22,16,29,16.70
2018,10,22,16,30,16.70
2018,10,22,16,31,16.70
2018,10,22,16,32,16.70
2018,10,22,16,33,16.70
2018,10,22,16,34,16.70
2018,10,22,16,35,16.70
2018,10,22,16,36,16.70
2018,10,22,16,37,16.60
2018,10,22,16,38,16.60
2018,10,22,16,39,16.60
2018,10,22,16,40,16.60
2018,10,22,16,41,16.60
2018,10,22,16,42,16.60
2018,10,22,16,43,16.60
2018,10,22,16,44,16.50
2018,10,22,16,45,16.50
2018,10,22,16,46,16.40
2018,10,22,16,47,16.40
2018,10,22,16,48,16.40
2018,10,22,16,49,16.40
2018,10,22,16,50,16.40
2018,10,22,16,51,16.30
2018,10,22,16,52,16.30
2018,10,22,16,53,16.30
2018,10,22,16,54,16.30
2018,10,22,16,55,16.30
2018,10,22,16,56,16.30
2018,10,22,16,57,16.30
2018,10,22,16,58,16.20
2018,10,22,16,59,16.20
2018,10,22,17,00,16.20
2018,10,22,17,01,16.20
2018,10,22,17,02,16.20
2018,10,22,17,03,16.20
2018,10,22,17,04,16.10
2018,10,22,17,05,16.10
2018,10,22,17,06,16.10
2018,10,22,17,07,16.10
2018,10,22,17,08,16.10
2018,10,22,17,09,16.10
2018,10,22,17,10,16.10
2018,10,22,17,11,16.10
2018,10,22,17,12,16.00
2018,10,22,17,13,16.00
2018,10,22,17,14,16.00
2018,10,22,17,15,16.00
2018,10,22,17,16,16.00
2018,10,22,17,17,16.00
2018,10,22,17,18,15.90
2018,10,22,17,19,15.90
2018,10,22,17,20,15.90
2018,10,22,17,21,15.90
2018,10,22,17,22,15.90
2018,10,22,17,23,15.80
2018,10,22,17,24,15.80
2018,10,22,17,25,15.80
2018,10,22,17,26,15.80
2018,10,22,17,27,15.70
2018,10,22,17,28,15.70
2018,10,22,17,29,15.70
2018,10,22,17,30,15.70
2018,10,22,17,31,15.70
2018,10,22,17,32,15.60
2018,10,22,17,33,15.60
2018,10,22,17,34,15.50
2018,10,22,17,35,15.50
2018,10,22,17,36,15.40
2018,10,22,17,37,15.30
2018,10,22,17,38,15.20
2018,10,22,17,39,15.00
2018,10,22,17,40,15.00
2018,10,22,17,41,15.00
2018,10,22,17,42,15.00
2018,10,22,17,43,15.00
2018,10,22,17,44,15.00
2018,10,22,17,45,15.00
2018,10,22,17,46,15.00
2018,10,22,17,47,15.00